| time (UTC) | temp F | wind direction | speed knots | gust knots | rain 1hr in | rain 24hr in | rain mn in | humidity % | barometer mb |
| 20260506221530 | 70 | 266 | 1.7 | 7.0 | 0.00 | 0.23 | 0.23 | 53 | 1006.4 |
| 20260506220025 | 70 | 231 | 0.9 | 7.0 | 0.00 | 0.23 | 0.23 | 53 | 1006.4 |
| 20260506214523 | 70 | 230 | 3.5 | 8.7 | 0.00 | 0.23 | 0.23 | 53 | 1006.5 |
| 20260506213022 | 70 | 214 | 2.6 | 8.7 | 0.00 | 0.23 | 0.23 | 53 | 1006.5 |
| 20260506211536 | 70 | 252 | 3.5 | 11.3 | 0.00 | 0.23 | 0.23 | 53 | 1006.4 |
| 20260506210031 | 70 | 236 | 5.2 | 9.6 | 0.00 | 0.23 | 0.23 | 53 | 1006.4 |
| 20260506204522 | 69 | 261 | 3.5 | 8.7 | 0.00 | 0.23 | 0.23 | 54 | 1006.3 |
| 20260506203016 | 70 | 222 | 4.3 | 9.6 | 0.00 | 0.23 | 0.23 | 53 | 1005.9 |
| 20260506201614 | 69 | 321 | 7.0 | 13.0 | 0.00 | 0.23 | 0.23 | 52 | 1006.2 |
| 20260506200012 | 69 | 217 | 2.6 | 7.8 | 0.00 | 0.23 | 0.23 | 53 | 1006.3 |
| 20260506194507 | 68 | 264 | 3.5 | 8.7 | 0.00 | 0.23 | 0.23 | 53 | 1006.4 |
| 20260506193004 | 68 | 263 | 4.3 | 10.4 | 0.00 | 0.23 | 0.23 | 52 | 1006.4 |
| 20260506191501 | 68 | 277 | 2.6 | 7.8 | 0.00 | 0.23 | 0.23 | 52 | 1006.6 |
| 20260506190058 | 67 | 239 | 4.3 | 10.4 | 0.00 | 0.23 | 0.23 | 53 | 1007.0 |
| 20260506184559 | 67 | 214 | 3.5 | 10.4 | 0.00 | 0.23 | 0.23 | 52 | 1007.1 |
| 20260506183101 | 66 | 280 | 3.5 | 10.4 | 0.00 | 0.23 | 0.23 | 53 | 1007.2 |
| 20260506181603 | 66 | 233 | 1.7 | 10.4 | 0.00 | 0.23 | 0.23 | 52 | 1007.1 |
| 20260506180049 | 66 | 207 | 1.7 | 7.0 | 0.00 | 0.23 | 0.23 | 51 | 1007.3 |
| 20260506174545 | 65 | 238 | 2.6 | 7.0 | 0.00 | 0.23 | 0.23 | 51 | 1007.5 |
| 20260506173111 | 64 | 249 | 2.6 | 12.2 | 0.00 | 0.23 | 0.23 | 51 | 1007.5 |
| 20260506171544 | 64 | 165 | 5.2 | 13.0 | 0.00 | 0.23 | 0.23 | 51 | 1007.5 |
| 20260506170052 | 64 | 249 | 8.7 | 13.9 | 0.00 | 0.23 | 0.23 | 51 | 1007.4 |
| 20260506164538 | 64 | 216 | 4.3 | 14.8 | 0.00 | 0.23 | 0.23 | 51 | 1007.5 |
| 20260506163043 | 64 | 190 | 6.1 | 11.3 | 0.00 | 0.23 | 0.23 | 50 | 1007.6 |
| 20260506161532 | 63 | 248 | 7.0 | 11.3 | 0.00 | 0.23 | 0.23 | 47 | 1007.8 |
| 20260506160034 | 62 | 264 | 4.3 | 10.4 | 0.00 | 0.23 | 0.23 | 45 | 1007.7 |
| 20260506154527 | 62 | 153 | 4.3 | 10.4 | 0.00 | 0.23 | 0.23 | 43 | 1007.8 |
| 20260506153026 | 62 | 214 | 7.0 | 13.9 | 0.01 | 0.23 | 0.23 | 40 | 1007.7 |
| 20260506151524 | 61 | 244 | 4.3 | 10.4 | 0.05 | 0.23 | 0.23 | 40 | 1008.1 |
| 20260506150022 | 60 | 204 | 5.2 | 8.7 | 0.06 | 0.23 | 0.23 | 40 | 1007.9 |
| 20260506144518 | 60 | 207 | 5.2 | 10.4 | 0.06 | 0.23 | 0.23 | 40 | 1008.1 |
| 20260506143023 | 60 | 210 | 1.7 | 8.7 | 0.07 | 0.22 | 0.22 | 40 | 1008.3 |
| 20260506141513 | 60 | 221 | 2.6 | 9.6 | 0.06 | 0.18 | 0.18 | 40 | 1008.4 |
| 20260506140017 | 60 | 217 | 1.7 | 6.1 | 0.08 | 0.17 | 0.17 | 41 | 1008.4 |
| 20260506134507 | 60 | 240 | 0.9 | 7.0 | 0.14 | 0.17 | 0.17 | 41 | 1008.5 |
| 20260506133005 | 60 | 248 | 1.7 | 7.0 | 0.14 | 0.15 | 0.15 | 42 | 1008.2 |
| 20260506131600 | 60 | 200 | 2.6 | 7.8 | 0.12 | 0.13 | 0.13 | 45 | 1008.6 |
| 20260506130120 | 60 | 217 | 2.6 | 7.8 | 0.08 | 0.09 | 0.09 | 50 | 1008.8 |
| 20260506124551 | 60 | 164 | 1.7 | 5.2 | 0.03 | 0.03 | 0.03 | 53 | 1008.9 |
| 20260506123048 | 61 | 256 | 0.0 | 3.5 | 0.01 | 0.01 | 0.01 | 56 | 1008.2 |
| 20260506121543 | 61 | 253 | 0.9 | 6.1 | 0.01 | 0.01 | 0.01 | 60 | 1008.2 |
| 20260506120038 | 61 | 210 | 0.9 | 6.1 | 0.01 | 0.01 | 0.01 | 61 | 1008.1 |
| 20260506114539 | 0 | 0.0 | 0.0 | 0.00 | 0.00 | 0.00 | 1008.5 | ||
| 20260506113027 | 0 | 0.0 | 0.0 | 0.00 | 0.00 | 0.00 | 1008.4 | ||
| 20260506111522 | 0 | 0.0 | 0.0 | 0.00 | 0.00 | 0.00 | 1008.1 | ||
| 20260506110017 | 0 | 0.0 | 0.0 | 0.00 | 0.00 | 0.00 | 1007.8 | ||
| 20260506104527 | 0 | 0.0 | 0.0 | 0.00 | 0.00 | 0.00 | 1007.8 | ||
| 20260506103007 | 0 | 0.0 | 0.0 | 0.00 | 0.00 | 0.00 | 1007.4 | ||
| 20260506101601 | 64 | 219 | 1.7 | 7.0 | 0.00 | 0.00 | 0.00 | 56 | 1007.6 |
| 20260506100057 | 65 | 222 | 1.7 | 7.0 | 0.00 | 0.00 | 0.00 | 55 | 1007.5 |
| 20260506094555 | 65 | 209 | 2.6 | 9.6 | 0.00 | 0.00 | 0.00 | 54 | 1007.5 |
| 20260506093051 | 65 | 204 | 1.7 | 8.7 | 0.00 | 0.00 | 0.00 | 54 | 1007.7 |
| 20260506091547 | 66 | 235 | 6.1 | 11.3 | 0.00 | 0.00 | 0.00 | 53 | 1007.6 |
| 20260506090047 | 66 | 249 | 5.2 | 12.2 | 0.00 | 0.00 | 0.00 | 53 | 1007.9 |
| 20260506084539 | 66 | 266 | 2.6 | 9.6 | 0.00 | 0.00 | 0.00 | 52 | 1008.1 |
| 20260506083041 | 66 | 200 | 1.7 | 14.8 | 0.00 | 0.00 | 0.00 | 52 | 1008.1 |
| 20260506081533 | 67 | 243 | 4.3 | 10.4 | 0.00 | 0.00 | 0.00 | 51 | 1008.0 |
| 20260506073020 | 67 | 266 | 1.7 | 10.4 | 0.00 | 0.00 | 0.00 | 49 | 1007.9 |
| 20260506071520 | 67 | 231 | 4.3 | 10.4 | 0.00 | 0.00 | 0.00 | 49 | 1007.9 |
| 20260506061601 | 68 | 150 | 0.9 | 11.3 | 0.00 | 0.00 | 0.00 | 46 | 1008.6 |
| 20260506044541 | 70 | 181 | 3.5 | 11.3 | 0.00 | 0.00 | 0.00 | 42 | 1009.1 |
| 20260506043048 | 70 | 224 | 1.7 | 8.7 | 0.00 | 0.00 | 0.00 | 41 | 1009.0 |
| 20260506041539 | 70 | 187 | 3.5 | 10.4 | 0.00 | 0.00 | 0.00 | 41 | 1008.9 |
| 20260506040044 | 70 | 261 | 1.7 | 11.3 | 0.00 | 0.00 | 0.00 | 41 | 1008.9 |
| 20260506034532 | 69 | 223 | 0.0 | 7.0 | 0.00 | 0.00 | 0.00 | 41 | 1008.9 |
| 20260506033029 | 70 | 235 | 0.9 | 6.1 | 0.00 | 0.00 | 0.00 | 40 | 1009.0 |
| 20260506031527 | 69 | 231 | 0.9 | 7.0 | 0.00 | 0.00 | 0.00 | 39 | 1009.0 |
| 20260506030025 | 70 | 226 | 0.0 | 6.1 | 0.00 | 0.00 | 0.00 | 38 | 1008.9 |
| 20260506024533 | 70 | 224 | 1.7 | 7.0 | 0.00 | 0.00 | 0.00 | 37 | 1009.1 |
| 20260506023022 | 70 | 231 | 1.7 | 4.3 | 0.00 | 0.00 | 0.00 | 35 | 1008.9 |
| 20260506021538 | 71 | 238 | 0.0 | 5.2 | 0.00 | 0.00 | 0.00 | 34 | 1009.0 |
| 20260506020018 | 71 | 224 | 1.7 | 6.1 | 0.00 | 0.00 | 0.00 | 33 | 1009.1 |
| 20260506014523 | 72 | 233 | 0.0 | 4.3 | 0.00 | 0.00 | 0.00 | 32 | 1008.9 |
| 20260506013014 | 73 | 186 | 1.7 | 6.1 | 0.00 | 0.00 | 0.00 | 29 | 1008.7 |
| 20260506011521 | 74 | 201 | 1.7 | 6.1 | 0.00 | 0.00 | 0.00 | 28 | 1008.6 |
| 20260506010012 | 74 | 219 | 2.6 | 10.4 | 0.00 | 0.00 | 0.00 | 27 | 1008.4 |
| 20260506004508 | 74 | 262 | 2.6 | 8.7 | 0.00 | 0.00 | 0.00 | 27 | 1008.2 |
| 20260506003007 | 75 | 254 | 2.6 | 6.1 | 0.00 | 0.00 | 0.00 | 26 | 1008.1 |
| 20260506001504 | 76 | 193 | 0.9 | 8.7 | 0.00 | 0.00 | 0.00 | 24 | 1007.8 |
| 20260506000003 | 76 | 251 | 2.6 | 7.8 | 0.00 | 0.00 | 0.00 | 23 | 1007.8 |
| 20260505234503 | 77 | 219 | 2.6 | 7.8 | 0.00 | 0.00 | 0.00 | 22 | 1007.6 |
| 20260505233059 | 78 | 238 | 0.9 | 10.4 | 0.00 | 0.00 | 0.00 | 20 | 1007.6 |
| 20260505231557 | 79 | 243 | 7.8 | 13.0 | 0.00 | 0.00 | 0.00 | 18 | 1007.7 |
| 20260505230055 | 80 | 272 | 7.8 | 13.9 | 0.00 | 0.00 | 0.00 | 16 | 1007.9 |
| 20260505224554 | 80 | 236 | 4.3 | 11.3 | 0.00 | 0.00 | 0.00 | 19 | 1007.7 |
| 20260505223104 | 81 | 180 | 3.5 | 12.2 | 0.00 | 0.00 | 0.00 | 18 | 1007.6 |